Location: La Pernelle
(49.6188°N, 1.2999°W)
Time: 09:06:57
(UTC+00:00)

Cosmos 1844 - Pass Details

Date: 12 June 2021
Orbit: 823 x 867 km, 70.9° (Epoch: 01 August)

Event Time Altitude Azimuth Distance (km) Brightness Sun altitude
Rises 22:13:42 0° 331° (NNW) 3,370 8.9 -13.1°
Reaches altitude 10° 22:16:09 10° 334° (NNW) 2,434 7.6 -13.2°
Maximum altitude 22:21:44 73° 59° (ENE) 869 3.8 -13.6°
Enters shadow 22:25:46 19° 142° (SE) 1,868 4.9 -13.9°
